Time,TemperatureF,DewpointF,PressureIn,WindDirection,WindDirectionDegrees,WindSpeedMPH,WindSpeedGustMPH,Humidity,HourlyPrecipIn,Conditions,Clouds,dailyrainin,SoftwareType,DateUTC
2013-11-12 00:00:00,60.7,54.8,30.21,SE,133,0.0,0.0,81,0.00,,SKC,0.00,VWS V14.01,2013-11-12 06:00:00,
2013-11-12 00:01:00,60.7,54.8,30.21,SE,133,0.0,0.0,81,0.00,,SKC,0.00,VWS V14.01,2013-11-12 06:01:00,
2013-11-12 00:06:00,60.6,54.8,30.21,SE,133,0.0,0.0,81,0.00,,SKC,0.00,VWS V14.01,2013-11-12 06:06:00,
2013-11-12 00:10:00,60.6,54.8,30.21,SE,133,0.0,0.0,81,0.00,,SKC,0.00,VWS V14.01,2013-11-12 06:10:00,
2013-11-12 00:11:00,60.5,54.7,30.21,SE,133,0.0,0.0,81,0.00,,SKC,0.00,VWS V14.01,2013-11-12 06:11:00,
2013-11-12 00:16:00,60.5,54.7,30.21,SE,133,0.0,0.0,81,0.00,,SKC,0.00,VWS V14.01,2013-11-12 06:16:00,
2013-11-12 00:20:00,60.5,54.7,30.21,SE,133,0.0,0.0,81,0.00,,SKC,0.00,VWS V14.01,2013-11-12 06:20:00,
2013-11-12 00:21:00,60.5,54.7,30.21,SE,133,0.0,1.0,81,0.00,,SKC,0.00,VWS V14.01,2013-11-12 06:21:00,
2013-11-12 00:26:00,60.5,54.7,30.21,SE,133,0.0,0.0,81,0.00,,SKC,0.00,VWS V14.01,2013-11-12 06:26:00,
2013-11-12 00:30:00,60.5,54.7,30.21,SE,133,0.0,1.0,81,0.00,,SKC,0.00,VWS V14.01,2013-11-12 06:30:00,
2013-11-12 00:31:00,60.5,54.7,30.21,SE,133,0.0,0.0,81,0.00,,SKC,0.00,VWS V14.01,2013-11-12 06:31:00,
2013-11-12 00:36:00,60.4,54.5,30.21,SE,133,0.0,0.0,81,0.00,,SKC,0.00,VWS V14.01,2013-11-12 06:36:00,
2013-11-12 00:40:00,60.4,54.5,30.21,SE,133,0.0,0.0,81,0.00,,SKC,0.00,VWS V14.01,2013-11-12 06:40:00,
2013-11-12 00:41:00,60.4,54.5,30.22,SE,133,0.0,0.0,81,0.00,,SKC,0.00,VWS V14.01,2013-11-12 06:41:00,
2013-11-12 00:46:00,60.3,54.5,30.21,SE,133,0.0,0.0,81,0.00,,SKC,0.00,VWS V14.01,2013-11-12 06:46:00,
2013-11-12 00:50:00,60.3,54.5,30.21,SE,133,0.0,0.0,81,0.00,,SKC,0.00,VWS V14.01,2013-11-12 06:50:00,
2013-11-12 00:51:00,60.2,54.7,30.22,SE,133,0.0,0.0,82,0.00,,SKC,0.00,VWS V14.01,2013-11-12 06:51:00,
2013-11-12 00:56:00,60.2,54.7,30.22,SE,133,0.0,0.0,82,0.00,,SKC,0.00,VWS V14.01,2013-11-12 06:56:00,
2013-11-12 01:00:00,60.2,54.7,30.22,SE,133,0.0,0.0,82,0.00,,SKC,0.00,VWS V14.01,2013-11-12 07:00:00,
2013-11-12 01:01:00,60.2,54.7,30.22,SE,133,0.0,0.0,82,0.00,,SKC,0.00,VWS V14.01,2013-11-12 07:01:00,
2013-11-12 01:06:00,60.2,54.7,30.22,SE,133,0.0,0.0,82,0.00,,SKC,0.00,VWS V14.01,2013-11-12 07:06:00,
2013-11-12 01:10:00,60.2,54.7,30.22,SE,133,0.0,1.0,82,0.00,,SKC,0.00,VWS V14.01,2013-11-12 07:10:00,
2013-11-12 01:11:00,60.2,54.7,30.22,SE,133,0.0,0.0,82,0.00,,SKC,0.00,VWS V14.01,2013-11-12 07:11:00,
2013-11-12 01:16:00,60.3,54.8,30.22,SE,133,0.0,0.0,82,0.00,,SKC,0.00,VWS V14.01,2013-11-12 07:16:00,
2013-11-12 01:20:00,60.3,54.8,30.23,SE,133,0.0,0.0,82,0.00,,SKC,0.00,VWS V14.01,2013-11-12 07:20:00,
2013-11-12 01:21:00,60.3,54.8,30.22,SE,133,0.0,1.0,82,0.00,,SKC,0.00,VWS V14.01,2013-11-12 07:21:00,
2013-11-12 01:26:00,60.4,54.9,30.23,SE,133,0.0,0.0,82,0.00,,SKC,0.00,VWS V14.01,2013-11-12 07:26:00,
2013-11-12 01:30:00,60.4,54.9,30.23,SE,133,0.0,1.0,82,0.00,,SKC,0.00,VWS V14.01,2013-11-12 07:30:00,
2013-11-12 01:31:00,60.5,55.0,30.23,SE,133,0.0,0.0,82,0.00,,SKC,0.00,VWS V14.01,2013-11-12 07:31:00,
2013-11-12 01:36:00,60.6,54.8,30.23,SE,133,0.0,0.0,81,0.00,,SKC,0.00,VWS V14.01,2013-11-12 07:36:00,
2013-11-12 01:40:00,60.5,54.7,30.23,SE,133,0.0,0.0,81,0.00,,SKC,0.00,VWS V14.01,2013-11-12 07:40:00,
2013-11-12 01:41:00,60.7,54.8,30.23,SE,133,0.0,0.0,81,0.00,,SKC,0.00,VWS V14.01,2013-11-12 07:41:00,
2013-11-12 01:46:00,60.7,54.8,30.23,SE,133,0.0,0.0,81,0.00,,SKC,0.00,VWS V14.01,2013-11-12 07:46:00,
2013-11-12 01:50:00,60.7,54.8,30.23,SE,133,0.0,0.0,81,0.00,,SKC,0.00,VWS V14.01,2013-11-12 07:50:00,
2013-11-12 01:51:00,60.7,54.8,30.23,SE,133,0.0,0.0,81,0.00,,SKC,0.00,VWS V14.01,2013-11-12 07:51:00,
2013-11-12 01:56:00,60.6,54.8,30.23,SE,133,0.0,0.0,81,0.00,,SKC,0.00,VWS V14.01,2013-11-12 07:56:00,
2013-11-12 02:00:00,60.6,54.8,30.23,SE,133,0.0,0.0,81,0.00,,SKC,0.00,VWS V14.01,2013-11-12 08:00:00,
2013-11-12 02:01:00,60.6,54.8,30.23,SE,133,0.0,0.0,81,0.00,,SKC,0.00,VWS V14.01,2013-11-12 08:01:00,
2013-11-12 02:06:00,60.5,54.7,30.23,SE,133,0.0,0.0,81,0.00,,SKC,0.00,VWS V14.01,2013-11-12 08:06:00,
2013-11-12 02:10:00,60.5,54.7,30.23,SE,133,0.0,2.0,81,0.00,,SKC,0.00,VWS V14.01,2013-11-12 08:10:00,
2013-11-12 02:11:00,60.4,54.5,30.23,SE,133,0.0,0.0,81,0.00,,SKC,0.00,VWS V14.01,2013-11-12 08:11:00,
2013-11-12 02:16:00,60.3,54.5,30.23,SE,133,0.0,0.0,81,0.00,,SKC,0.00,VWS V14.01,2013-11-12 08:16:00,
2013-11-12 02:20:00,60.3,54.5,30.23,SE,133,0.0,0.0,81,0.00,,SKC,0.00,VWS V14.01,2013-11-12 08:20:00,
2013-11-12 02:21:00,60.2,54.4,30.23,SE,133,0.0,0.0,81,0.00,,SKC,0.00,VWS V14.01,2013-11-12 08:21:00,
2013-11-12 02:26:00,60.2,54.4,30.23,SE,133,0.0,0.0,81,0.00,,SKC,0.00,VWS V14.01,2013-11-12 08:26:00,
2013-11-12 02:30:00,60.2,54.4,30.23,SE,133,0.0,0.0,81,0.00,,SKC,0.00,VWS V14.01,2013-11-12 08:30:00,
2013-11-12 02:31:00,60.1,54.6,30.23,SE,133,0.0,0.0,82,0.00,,SKC,0.00,VWS V14.01,2013-11-12 08:31:00,
2013-11-12 02:36:00,60.0,54.2,30.23,SE,133,0.0,0.0,81,0.00,,SKC,0.00,VWS V14.01,2013-11-12 08:36:00,
2013-11-12 02:40:00,60.0,54.5,30.23,SE,133,0.0,0.0,82,0.00,,SKC,0.00,VWS V14.01,2013-11-12 08:40:00,
2013-11-12 02:41:00,60.0,54.5,30.24,SE,133,0.0,0.0,82,0.00,,SKC,0.00,VWS V14.01,2013-11-12 08:41:00,
2013-11-12 02:46:00,60.0,54.5,30.24,SE,133,0.0,0.0,82,0.00,,SKC,0.00,VWS V14.01,2013-11-12 08:46:00,
2013-11-12 02:50:00,59.9,54.4,30.24,SE,133,0.0,0.0,82,0.00,,SKC,0.00,VWS V14.01,2013-11-12 08:50:00,
2013-11-12 02:51:00,59.9,54.4,30.24,SE,133,0.0,0.0,82,0.00,,SKC,0.00,VWS V14.01,2013-11-12 08:51:00,
2013-11-12 02:56:00,59.8,54.3,30.24,SE,133,0.0,0.0,82,0.00,,SKC,0.00,VWS V14.01,2013-11-12 08:56:00,
2013-11-12 03:00:00,59.9,54.4,30.24,SE,133,0.0,0.0,82,0.00,,SKC,0.00,VWS V14.01,2013-11-12 09:00:00,
2013-11-12 03:01:00,59.8,54.3,30.24,SE,133,0.0,0.0,82,0.00,,SKC,0.00,VWS V14.01,2013-11-12 09:01:00,
2013-11-12 03:06:00,59.7,54.2,30.24,SE,133,0.0,0.0,82,0.00,,SKC,0.00,VWS V14.01,2013-11-12 09:06:00,
2013-11-12 03:10:00,59.7,54.2,30.24,SE,133,0.0,0.0,82,0.00,,SKC,0.00,VWS V14.01,2013-11-12 09:10:00,
2013-11-12 03:11:00,59.6,54.1,30.24,SE,133,0.0,0.0,82,0.00,,SKC,0.00,VWS V14.01,2013-11-12 09:11:00,
2013-11-12 03:16:00,59.6,54.4,30.24,SE,133,0.0,0.0,83,0.00,,SKC,0.00,VWS V14.01,2013-11-12 09:16:00,
2013-11-12 03:20:00,59.6,54.1,30.24,SE,133,0.0,0.0,82,0.00,,SKC,0.00,VWS V14.01,2013-11-12 09:20:00,
2013-11-12 03:21:00,59.5,54.3,30.24,SE,133,0.0,0.0,83,0.00,,SKC,0.00,VWS V14.01,2013-11-12 09:21:00,
2013-11-12 03:26:00,59.4,54.2,30.25,SE,133,0.0,0.0,83,0.00,,SKC,0.00,VWS V14.01,2013-11-12 09:26:00,
2013-11-12 03:30:00,59.4,54.2,30.25,SE,133,0.0,0.0,83,0.00,,SKC,0.00,VWS V14.01,2013-11-12 09:30:00,
2013-11-12 03:31:00,59.2,54.0,30.25,SE,133,0.0,0.0,83,0.00,,SKC,0.00,VWS V14.01,2013-11-12 09:31:00,
2013-11-12 03:36:00,59.1,54.3,30.25,SE,133,0.0,0.0,84,0.00,,SKC,0.00,VWS V14.01,2013-11-12 09:36:00,
2013-11-12 03:40:00,59.1,54.0,30.25,SE,133,0.0,0.0,83,0.00,,SKC,0.00,VWS V14.01,2013-11-12 09:40:00,
2013-11-12 03:41:00,58.9,54.1,30.25,SE,133,0.0,0.0,84,0.00,,SKC,0.00,VWS V14.01,2013-11-12 09:41:00,
2013-11-12 03:46:00,58.8,54.0,30.25,SE,133,0.0,0.0,84,0.00,,SKC,0.00,VWS V14.01,2013-11-12 09:46:00,
2013-11-12 03:50:00,58.8,54.0,30.25,SE,133,0.0,0.0,84,0.00,,SKC,0.00,VWS V14.01,2013-11-12 09:50:00,
2013-11-12 03:51:00,58.8,54.0,30.25,SE,133,0.0,0.0,84,0.00,,SKC,0.00,VWS V14.01,2013-11-12 09:51:00,
2013-11-12 03:56:00,58.7,54.2,30.26,SE,133,0.0,0.0,85,0.00,,SKC,0.00,VWS V14.01,2013-11-12 09:56:00,
2013-11-12 04:00:00,58.7,54.2,30.26,SE,133,0.0,0.0,85,0.00,,SKC,0.00,VWS V14.01,2013-11-12 10:00:00,
2013-11-12 04:01:00,58.7,54.2,30.26,SE,133,0.0,0.0,85,0.00,,SKC,0.00,VWS V14.01,2013-11-12 10:01:00,
2013-11-12 04:06:00,58.7,54.2,30.26,SE,133,0.0,0.0,85,0.00,,SKC,0.00,VWS V14.01,2013-11-12 10:06:00,
2013-11-12 04:10:00,58.7,54.2,30.26,SE,133,0.0,0.0,85,0.00,,SKC,0.00,VWS V14.01,2013-11-12 10:10:00,
2013-11-12 04:11:00,58.7,54.2,30.26,SE,133,0.0,0.0,85,0.00,,SKC,0.00,VWS V14.01,2013-11-12 10:11:00,
2013-11-12 04:16:00,58.7,54.2,30.26,SE,133,0.0,0.0,85,0.00,,SKC,0.00,VWS V14.01,2013-11-12 10:16:00,
2013-11-12 04:20:00,58.7,54.2,30.26,SE,133,0.0,0.0,85,0.00,,SKC,0.00,VWS V14.01,2013-11-12 10:20:00,
2013-11-12 04:21:00,58.7,54.2,30.26,SE,133,0.0,2.0,85,0.00,,SKC,0.00,VWS V14.01,2013-11-12 10:21:00,
2013-11-12 04:26:00,58.7,53.9,30.27,SE,133,0.0,0.0,84,0.00,,SKC,0.00,VWS V14.01,2013-11-12 10:26:00,
2013-11-12 04:30:00,58.7,54.2,30.26,SE,133,0.0,4.0,85,0.00,,SKC,0.00,VWS V14.01,2013-11-12 10:30:00,
2013-11-12 04:31:00,58.9,54.1,30.27,SE,133,0.0,1.0,84,0.00,,SKC,0.00,VWS V14.01,2013-11-12 10:31:00,
2013-11-12 04:36:00,59.0,54.2,30.27,SE,133,0.0,0.0,84,0.00,,SKC,0.00,VWS V14.01,2013-11-12 10:36:00,
2013-11-12 04:40:00,59.0,54.2,30.27,SE,133,0.0,2.0,84,0.00,,SKC,0.00,VWS V14.01,2013-11-12 10:40:00,
2013-11-12 04:41:00,59.2,54.0,30.27,SE,133,0.0,5.0,83,0.00,,SKC,0.00,VWS V14.01,2013-11-12 10:41:00,
2013-11-12 04:46:00,59.3,54.2,30.27,SE,133,0.0,0.0,83,0.00,,SKC,0.00,VWS V14.01,2013-11-12 10:46:00,
2013-11-12 04:50:00,59.3,54.2,30.27,SE,133,0.0,5.0,83,0.00,,SKC,0.00,VWS V14.01,2013-11-12 10:50:00,
2013-11-12 04:51:00,59.4,54.2,30.27,SE,133,0.0,1.0,83,0.00,,SKC,0.00,VWS V14.01,2013-11-12 10:51:00,
2013-11-12 04:56:00,59.4,53.9,30.27,SE,133,0.0,5.0,82,0.00,,SKC,0.00,VWS V14.01,2013-11-12 10:56:00,
2013-11-12 05:00:00,59.4,53.9,30.27,SE,133,0.0,1.0,82,0.00,,SKC,0.00,VWS V14.01,2013-11-12 11:00:00,
2013-11-12 05:01:00,59.5,54.0,30.28,SE,133,0.0,5.0,82,0.00,,SKC,0.00,VWS V14.01,2013-11-12 11:01:00,
2013-11-12 05:06:00,59.6,54.1,30.28,SE,133,6.0,6.0,82,0.00,,SKC,0.00,VWS V14.01,2013-11-12 11:06:00,
2013-11-12 05:10:00,59.6,54.1,30.27,SE,133,0.0,5.0,82,0.00,,SKC,0.00,VWS V14.01,2013-11-12 11:10:00,
2013-11-12 05:11:00,59.7,54.2,30.28,SE,133,3.0,6.0,82,0.00,,SKC,0.00,VWS V14.01,2013-11-12 11:11:00,
2013-11-12 05:16:00,59.9,54.1,30.28,SE,133,0.0,5.0,81,0.00,,SKC,0.00,VWS V14.01,2013-11-12 11:16:00,
2013-11-12 05:20:00,59.8,54.0,30.28,SE,133,0.0,6.0,81,0.00,,SKC,0.00,VWS V14.01,2013-11-12 11:20:00,
2013-11-12 05:21:00,60.0,54.2,30.28,SE,133,0.0,5.0,81,0.00,,SKC,0.00,VWS V14.01,2013-11-12 11:21:00,
2013-11-12 05:26:00,60.1,54.3,30.29,SE,133,0.0,2.0,81,0.00,,SKC,0.00,VWS V14.01,2013-11-12 11:26:00,
2013-11-12 05:30:00,60.1,54.3,30.29,SE,133,2.0,6.0,81,0.00,,SKC,0.00,VWS V14.01,2013-11-12 11:30:00,
2013-11-12 05:31:00,60.1,53.9,30.29,SE,133,0.0,2.0,80,0.00,,SKC,0.00,VWS V14.01,2013-11-12 11:31:00,
2013-11-12 05:36:00,60.2,54.0,30.29,SE,133,0.0,0.0,80,0.00,,SKC,0.00,VWS V14.01,2013-11-12 11:36:00,
2013-11-12 05:40:00,60.2,54.0,30.29,SE,133,0.0,5.0,80,0.00,,SKC,0.00,VWS V14.01,2013-11-12 11:40:00,
2013-11-12 05:41:00,60.3,54.5,30.30,SE,133,0.0,0.0,81,0.00,,SKC,0.00,VWS V14.01,2013-11-12 11:41:00,
2013-11-12 05:46:00,60.3,54.5,30.29,SE,133,0.0,0.0,81,0.00,,SKC,0.00,VWS V14.01,2013-11-12 11:46:00,
2013-11-12 05:50:00,60.3,54.5,30.30,SE,133,0.0,0.0,81,0.00,,SKC,0.00,VWS V14.01,2013-11-12 11:50:00,
2013-11-12 05:51:00,60.2,54.4,30.30,SE,133,0.0,3.0,81,0.00,,SKC,0.00,VWS V14.01,2013-11-12 11:51:00,
2013-11-12 05:56:00,60.2,54.4,30.30,SE,133,0.0,0.0,81,0.00,,SKC,0.00,VWS V14.01,2013-11-12 11:56:00,
2013-11-12 06:00:00,60.2,54.4,30.30,SE,133,0.0,3.0,81,0.00,,SKC,0.00,VWS V14.01,2013-11-12 12:00:00,
2013-11-12 06:01:00,60.2,54.4,30.30,SE,133,0.0,1.0,81,0.00,,SKC,0.00,VWS V14.01,2013-11-12 12:01:00,
2013-11-12 06:06:00,60.1,54.3,30.30,SE,133,0.0,0.0,81,0.00,,SKC,0.00,VWS V14.01,2013-11-12 12:06:00,
2013-11-12 06:10:00,60.1,54.6,30.30,SE,133,0.0,1.0,82,0.00,,SKC,0.00,VWS V14.01,2013-11-12 12:10:00,
2013-11-12 06:11:00,60.1,54.6,30.30,SE,133,0.0,0.0,82,0.00,,SKC,0.00,VWS V14.01,2013-11-12 12:11:00,
2013-11-12 06:16:00,60.0,54.5,30.30,SE,133,0.0,0.0,82,0.00,,SKC,0.00,VWS V14.01,2013-11-12 12:16:00,
2013-11-12 06:20:00,60.0,54.5,30.30,SE,133,0.0,3.0,82,0.00,,SKC,0.00,VWS V14.01,2013-11-12 12:20:00,
2013-11-12 06:21:00,60.0,54.5,30.31,SE,133,0.0,0.0,82,0.00,,SKC,0.00,VWS V14.01,2013-11-12 12:21:00,
2013-11-12 06:26:00,59.9,54.7,30.30,SE,133,0.0,0.0,83,0.00,,SKC,0.00,VWS V14.01,2013-11-12 12:26:00,
2013-11-12 06:30:00,59.9,54.4,30.30,SE,133,0.0,0.0,82,0.00,,SKC,0.00,VWS V14.01,2013-11-12 12:30:00,
2013-11-12 06:31:00,59.8,54.6,30.30,SE,133,0.0,1.0,83,0.00,,SKC,0.00,VWS V14.01,2013-11-12 12:31:00,
2013-11-12 06:36:00,59.6,54.4,30.31,SE,133,0.0,0.0,83,0.00,,SKC,0.00,VWS V14.01,2013-11-12 12:36:00,
2013-11-12 06:40:00,59.6,54.4,30.31,SE,133,0.0,1.0,83,0.00,,SKC,0.00,VWS V14.01,2013-11-12 12:40:00,
2013-11-12 06:41:00,59.5,54.7,30.31,SE,133,0.0,2.0,84,0.00,,SKC,0.00,VWS V14.01,2013-11-12 12:41:00,
2013-11-12 06:46:00,59.3,54.2,30.31,SE,133,0.0,4.0,83,0.00,,SKC,0.00,VWS V14.01,2013-11-12 12:46:00,
2013-11-12 06:50:00,59.4,54.2,30.31,SE,133,0.0,3.0,83,0.00,,SKC,0.00,VWS V14.01,2013-11-12 12:50:00,
2013-11-12 06:51:00,59.2,54.0,30.31,SE,133,0.0,4.0,83,0.00,,SKC,0.00,VWS V14.01,2013-11-12 12:51:00,
2013-11-12 06:56:00,59.1,54.0,30.31,SE,133,0.0,3.0,83,0.00,,SKC,0.00,VWS V14.01,2013-11-12 12:56:00,
2013-11-12 07:00:00,59.1,54.0,30.31,SE,133,3.0,5.0,83,0.00,,SKC,0.00,VWS V14.01,2013-11-12 13:00:00,
2013-11-12 07:01:00,58.9,54.1,30.32,SE,133,0.0,6.0,84,0.00,,SKC,0.00,VWS V14.01,2013-11-12 13:01:00,
2013-11-12 07:06:00,58.9,54.1,30.32,SE,133,0.0,0.0,84,0.00,,SKC,0.00,VWS V14.01,2013-11-12 13:06:00,
2013-11-12 07:10:00,58.9,53.8,30.31,SE,133,0.0,6.0,83,0.00,,SKC,0.00,VWS V14.01,2013-11-12 13:10:00,
2013-11-12 07:11:00,58.8,54.0,30.32,SE,133,0.0,4.0,84,0.00,,SKC,0.00,VWS V14.01,2013-11-12 13:11:00,
2013-11-12 07:16:00,58.8,54.0,30.32,SE,133,1.0,5.0,84,0.00,,SKC,0.00,VWS V14.01,2013-11-12 13:16:00,
2013-11-12 07:20:00,58.7,53.9,30.32,SE,133,2.0,6.0,84,0.00,,SKC,0.00,VWS V14.01,2013-11-12 13:20:00,
2013-11-12 07:21:00,58.7,53.9,30.33,SE,132,0.0,5.0,84,0.00,,SKC,0.00,VWS V14.01,2013-11-12 13:21:00,
2013-11-12 07:26:00,58.7,53.9,30.33,SE,132,0.0,3.0,84,0.00,,SKC,0.00,VWS V14.01,2013-11-12 13:26:00,
2013-11-12 07:30:00,58.7,53.9,30.33,SE,132,0.0,5.0,84,0.00,,SKC,0.00,VWS V14.01,2013-11-12 13:30:00,
2013-11-12 07:31:00,58.7,53.6,30.33,SE,132,0.0,3.0,83,0.00,,SKC,0.00,VWS V14.01,2013-11-12 13:31:00,
2013-11-12 07:36:00,58.8,53.7,30.33,SE,131,0.0,3.0,83,0.00,,SKC,0.00,VWS V14.01,2013-11-12 13:36:00,
2013-11-12 07:40:00,58.8,53.7,30.33,SE,132,0.0,3.0,83,0.00,,SKC,0.00,VWS V14.01,2013-11-12 13:40:00,
2013-11-12 07:41:00,58.8,53.7,30.33,SE,131,0.0,6.0,83,0.00,,SKC,0.00,VWS V14.01,2013-11-12 13:41:00,
2013-11-12 07:46:00,58.9,53.8,30.34,SE,131,0.0,0.0,83,0.00,,SKC,0.00,VWS V14.01,2013-11-12 13:46:00,
2013-11-12 07:50:00,58.8,53.7,30.34,SE,131,0.0,6.0,83,0.00,,SKC,0.00,VWS V14.01,2013-11-12 13:50:00,
2013-11-12 07:51:00,58.9,53.8,30.34,SE,131,0.0,0.0,83,0.00,,SKC,0.00,VWS V14.01,2013-11-12 13:51:00,
2013-11-12 07:56:00,59.0,53.8,30.34,SE,131,0.0,0.0,83,0.00,,SKC,0.00,VWS V14.01,2013-11-12 13:56:00,
2013-11-12 08:00:00,59.0,53.8,30.34,SE,131,0.0,1.0,83,0.00,,SKC,0.00,VWS V14.01,2013-11-12 14:00:00,
2013-11-12 08:01:00,59.1,54.0,30.34,SE,130,0.0,5.0,83,0.00,,SKC,0.00,VWS V14.01,2013-11-12 14:01:00,
2013-11-12 08:06:00,59.3,53.8,30.35,SE,130,0.0,4.0,82,0.00,,SKC,0.00,VWS V14.01,2013-11-12 14:06:00,
2013-11-12 08:10:00,59.2,53.7,30.35,SE,130,0.0,6.0,82,0.00,,SKC,0.00,VWS V14.01,2013-11-12 14:10:00,
2013-11-12 08:11:00,59.4,53.9,30.36,SE,129,0.0,4.0,82,0.00,,SKC,0.00,VWS V14.01,2013-11-12 14:11:00,
2013-11-12 08:16:00,59.7,54.2,30.36,ESE,123,0.0,4.0,82,0.00,,SKC,0.00,VWS V14.01,2013-11-12 14:16:00,
2013-11-12 08:20:00,59.7,54.2,30.36,ESE,123,1.0,8.0,82,0.00,,SKC,0.00,VWS V14.01,2013-11-12 14:20:00,
2013-11-12 08:21:00,60.2,54.4,30.37,ESE,105,1.0,9.0,81,0.00,,SKC,0.00,VWS V14.01,2013-11-12 14:21:00,
2013-11-12 08:26:00,61.0,54.5,30.37,ENE,66,0.0,3.0,79,0.00,,SKC,0.00,VWS V14.01,2013-11-12 14:26:00,
2013-11-12 08:30:00,60.8,54.3,30.37,ENE,66,0.0,11.0,79,0.00,,SKC,0.00,VWS V14.01,2013-11-12 14:30:00,
2013-11-12 08:31:00,61.7,54.4,30.38,ENE,57,0.0,11.0,77,0.00,,SKC,0.00,VWS V14.01,2013-11-12 14:31:00,
2013-11-12 08:36:00,62.6,54.2,30.38,NNE,22,1.0,9.0,74,0.00,,SKC,0.00,VWS V14.01,2013-11-12 14:36:00,
2013-11-12 08:40:00,62.5,54.5,30.38,NNE,24,9.0,15.0,75,0.00,,SKC,0.00,VWS V14.01,2013-11-12 14:40:00,
2013-11-12 08:41:00,63.3,54.1,30.39,NNE,17,5.0,16.0,72,0.00,,SKC,0.00,VWS V14.01,2013-11-12 14:41:00,
2013-11-12 08:46:00,63.9,54.7,30.39,NNE,15,6.0,6.0,72,0.00,,SKC,0.00,VWS V14.01,2013-11-12 14:46:00,
2013-11-12 08:50:00,63.8,54.6,30.39,NNE,15,0.0,16.0,72,0.00,,SKC,0.00,VWS V14.01,2013-11-12 14:50:00,
2013-11-12 08:51:00,64.3,54.3,30.39,North,5,0.0,14.0,70,0.00,,SKC,0.00,VWS V14.01,2013-11-12 14:51:00,
2013-11-12 08:56:00,64.7,54.7,30.39,NNE,12,4.0,13.0,70,0.00,,SKC,0.00,VWS V14.01,2013-11-12 14:56:00,
2013-11-12 09:00:00,64.6,54.6,30.39,NNE,30,4.0,14.0,70,0.00,,SKC,0.00,VWS V14.01,2013-11-12 15:00:00,
2013-11-12 09:01:00,65.0,54.6,30.39,NNE,19,3.0,15.0,69,0.00,,SKC,0.00,VWS V14.01,2013-11-12 15:01:00,
2013-11-12 09:06:00,65.3,54.5,30.39,NNW,346,3.0,7.0,68,0.00,,SKC,0.00,VWS V14.01,2013-11-12 15:06:00,
2013-11-12 09:10:00,65.3,54.5,30.40,North,5,3.0,15.0,68,0.00,,SKC,0.00,VWS V14.01,2013-11-12 15:10:00,
2013-11-12 09:11:00,65.6,54.8,30.40,North,355,0.0,14.0,68,0.00,,SKC,0.00,VWS V14.01,2013-11-12 15:11:00,
2013-11-12 09:16:00,65.9,55.0,30.40,NNE,18,1.0,5.0,68,0.00,,SKC,0.00,VWS V14.01,2013-11-12 15:16:00,
2013-11-12 09:20:00,65.8,55.0,30.40,North,9,2.0,14.0,68,0.00,,SKC,0.00,VWS V14.01,2013-11-12 15:20:00,
2013-11-12 09:21:00,66.2,54.9,30.40,NE,34,3.0,17.0,67,0.00,,SKC,0.00,VWS V14.01,2013-11-12 15:21:00,
2013-11-12 09:26:00,66.5,55.2,30.40,NE,38,6.0,11.0,67,0.00,,SKC,0.00,VWS V14.01,2013-11-12 15:26:00,
2013-11-12 09:30:00,66.5,55.2,30.40,NNE,31,5.0,17.0,67,0.00,,SKC,0.00,VWS V14.01,2013-11-12 15:30:00,
2013-11-12 09:31:00,66.9,55.6,30.41,NNE,22,0.0,11.0,67,0.00,,SKC,0.00,VWS V14.01,2013-11-12 15:31:00,
2013-11-12 09:36:00,67.4,56.1,30.41,North,5,9.0,9.0,67,0.00,,SKC,0.00,VWS V14.01,2013-11-12 15:36:00,
2013-11-12 09:40:00,67.4,56.1,30.41,North,350,0.0,15.0,67,0.00,,SKC,0.00,VWS V14.01,2013-11-12 15:40:00,
2013-11-12 09:41:00,67.6,55.8,30.41,North,5,8.0,13.0,66,0.00,,SKC,0.00,VWS V14.01,2013-11-12 15:41:00,
2013-11-12 09:46:00,67.4,55.7,30.42,NNE,22,1.0,5.0,66,0.00,,SKC,0.00,VWS V14.01,2013-11-12 15:46:00,
2013-11-12 09:50:00,67.4,56.1,30.42,North,355,4.0,14.0,67,0.00,,SKC,0.00,VWS V14.01,2013-11-12 15:50:00,
2013-11-12 09:51:00,67.2,56.3,30.42,NNE,32,9.0,12.0,68,0.00,,SKC,0.00,VWS V14.01,2013-11-12 15:51:00,
2013-11-12 09:56:00,67.0,56.1,30.42,NNE,28,0.0,12.0,68,0.00,,SKC,0.00,VWS V14.01,2013-11-12 15:56:00,
2013-11-12 10:00:00,67.1,56.2,30.42,NE,48,4.0,13.0,68,0.00,,SKC,0.00,VWS V14.01,2013-11-12 16:00:00,
2013-11-12 10:01:00,66.6,56.1,30.42,NNE,19,1.0,13.0,69,0.00,,SKC,0.00,VWS V14.01,2013-11-12 16:01:00,
2013-11-12 10:06:00,66.2,56.1,30.42,North,9,3.0,17.0,70,0.00,,SKC,0.00,VWS V14.01,2013-11-12 16:06:00,
2013-11-12 10:10:00,66.3,56.2,30.42,North,351,17.0,17.0,70,0.00,,SKC,0.00,VWS V14.01,2013-11-12 16:10:00,
2013-11-12 10:11:00,65.5,55.9,30.42,NNE,28,8.0,17.0,71,0.00,,SKC,0.00,VWS V14.01,2013-11-12 16:11:00,
2013-11-12 10:16:00,64.7,55.5,30.43,NNE,23,1.0,8.0,72,0.00,,SKC,0.00,VWS V14.01,2013-11-12 16:16:00,
2013-11-12 10:20:00,64.7,55.1,30.43,NNE,22,4.0,20.0,71,0.00,,SKC,0.00,VWS V14.01,2013-11-12 16:20:00,
2013-11-12 10:21:00,64.0,55.2,30.43,North,350,0.0,10.0,73,0.00,,SKC,0.00,VWS V14.01,2013-11-12 16:21:00,
2013-11-12 10:26:00,63.6,55.5,30.43,NE,54,10.0,10.0,75,0.00,,SKC,0.00,VWS V14.01,2013-11-12 16:26:00,
2013-11-12 10:30:00,63.6,55.5,30.43,NE,41,0.0,11.0,75,0.00,,SKC,0.00,VWS V14.01,2013-11-12 16:30:00,
2013-11-12 10:31:00,63.4,55.7,30.43,North,5,0.0,11.0,76,0.00,,SKC,0.00,VWS V14.01,2013-11-12 16:31:00,
2013-11-12 10:36:00,63.2,55.5,30.43,NNE,17,8.0,10.0,76,0.00,,SKC,0.00,VWS V14.01,2013-11-12 16:36:00,
2013-11-12 10:40:00,63.3,55.6,30.43,North,351,10.0,11.0,76,0.00,,SKC,0.00,VWS V14.01,2013-11-12 16:40:00,
2013-11-12 10:41:00,63.0,55.7,30.43,North,5,2.0,15.0,77,0.00,,SKC,0.00,VWS V14.01,2013-11-12 16:41:00,
2013-11-12 10:46:00,62.8,55.5,30.43,North,350,2.0,9.0,77,0.00,,SKC,0.00,VWS V14.01,2013-11-12 16:46:00,
2013-11-12 10:50:00,62.8,55.1,30.43,North,355,5.0,17.0,76,0.00,,SKC,0.00,VWS V14.01,2013-11-12 16:50:00,
2013-11-12 10:51:00,62.4,54.8,30.43,North,350,3.0,17.0,76,0.00,,SKC,0.00,VWS V14.01,2013-11-12 16:51:00,
2013-11-12 10:55:00,61.8,53.8,30.43,North,360,4.0,7.0,75,0.00,,SKC,0.00,VWS V14.01,2013-11-12 16:55:00,
2013-11-12 11:00:00,61.1,53.5,30.43,NE,44,6.0,15.0,76,0.00,,SKC,0.00,VWS V14.01,2013-11-12 17:00:00,
2013-11-12 11:05:00,60.7,53.1,30.44,NNE,26,8.0,10.0,76,0.00,,SKC,0.00,VWS V14.01,2013-11-12 17:05:00,
2013-11-12 11:10:00,60.4,53.2,30.44,NNE,19,1.0,10.0,77,0.00,,SKC,0.00,VWS V14.01,2013-11-12 17:10:00,
2013-11-12 11:15:00,60.1,52.9,30.44,North,5,0.0,8.0,77,0.00,,SKC,0.00,VWS V14.01,2013-11-12 17:15:00,
2013-11-12 11:20:00,59.6,52.4,30.45,North,349,7.0,18.0,77,0.00,,SKC,0.00,VWS V14.01,2013-11-12 17:20:00,
2013-11-12 11:25:00,58.9,51.7,30.45,NNE,12,5.0,14.0,77,0.00,,SKC,0.00,VWS V14.01,2013-11-12 17:25:00,
2013-11-12 11:30:00,58.1,51.3,30.46,NNW,343,13.0,21.0,78,0.00,,SKC,0.00,VWS V14.01,2013-11-12 17:30:00,
2013-11-12 11:35:00,57.5,51.0,30.46,North,9,5.0,10.0,79,0.00,,SKC,0.00,VWS V14.01,2013-11-12 17:35:00,
2013-11-12 11:40:00,57.1,51.0,30.45,NNW,345,8.0,18.0,80,0.00,,SKC,0.00,VWS V14.01,2013-11-12 17:40:00,
2013-11-12 11:45:00,56.6,49.8,30.46,North,351,3.0,19.0,78,0.00,,SKC,0.00,VWS V14.01,2013-11-12 17:45:00,
2013-11-12 11:50:00,56.1,49.7,30.46,North,355,3.0,19.0,79,0.00,,SKC,0.00,VWS V14.01,2013-11-12 17:50:00,
2013-11-12 11:55:00,55.8,49.4,30.46,North,9,3.0,10.0,79,0.00,,SKC,0.00,VWS V14.01,2013-11-12 17:55:00,
2013-11-12 12:00:00,55.5,49.1,30.46,NNE,14,7.0,18.0,79,0.00,,SKC,0.00,VWS V14.01,2013-11-12 18:00:00,
2013-11-12 12:05:00,55.2,48.5,30.46,North,355,2.0,13.0,78,0.00,,SKC,0.00,VWS V14.01,2013-11-12 18:05:00,
2013-11-12 12:10:00,55.1,48.4,30.46,North,355,2.0,18.0,78,0.00,,SKC,0.00,VWS V14.01,2013-11-12 18:10:00,
2013-11-12 12:15:00,55.2,48.5,30.46,North,355,9.0,12.0,78,0.00,,SKC,0.00,VWS V14.01,2013-11-12 18:15:00,
2013-11-12 12:20:00,55.4,48.3,30.45,North,5,10.0,18.0,77,0.00,,SKC,0.00,VWS V14.01,2013-11-12 18:20:00,
2013-11-12 12:25:00,55.5,48.8,30.45,NE,36,0.0,4.0,78,0.00,,SKC,0.00,VWS V14.01,2013-11-12 18:25:00,
2013-11-12 12:30:00,55.7,49.0,30.45,NNW,338,13.0,13.0,78,0.00,,SKC,0.00,VWS V14.01,2013-11-12 18:30:00,
2013-11-12 12:35:00,55.6,48.5,30.45,NNE,32,1.0,18.0,77,0.00,,SKC,0.00,VWS V14.01,2013-11-12 18:35:00,
2013-11-12 12:40:00,55.5,48.4,30.45,North,5,2.0,18.0,77,0.00,,SKC,0.00,VWS V14.01,2013-11-12 18:40:00,
2013-11-12 12:45:00,55.5,48.4,30.45,NNW,345,4.0,4.0,77,0.00,,SKC,0.00,VWS V14.01,2013-11-12 18:45:00,
2013-11-12 12:50:00,55.7,48.3,30.44,NNW,345,3.0,14.0,76,0.00,,SKC,0.00,VWS V14.01,2013-11-12 18:50:00,
2013-11-12 12:55:00,55.6,48.2,30.44,NNE,13,6.0,14.0,76,0.00,,SKC,0.00,VWS V14.01,2013-11-12 18:55:00,
2013-11-12 13:00:00,55.6,48.2,30.44,NNW,333,3.0,16.0,76,0.00,,SKC,0.00,VWS V14.01,2013-11-12 19:00:00,
2013-11-12 13:05:00,55.6,48.2,30.44,North,355,0.0,1.0,76,0.00,,SKC,0.00,VWS V14.01,2013-11-12 19:05:00,
2013-11-12 13:10:00,55.7,47.9,30.44,NNW,348,2.0,18.0,75,0.00,,SKC,0.00,VWS V14.01,2013-11-12 19:10:00,
2013-11-12 13:15:00,55.4,47.6,30.44,NNW,348,0.0,1.0,75,0.00,,SKC,0.00,VWS V14.01,2013-11-12 19:15:00,
2013-11-12 13:20:00,55.3,47.5,30.44,North,11,9.0,15.0,75,0.00,,SKC,0.00,VWS V14.01,2013-11-12 19:20:00,
2013-11-12 13:25:00,55.2,47.4,30.44,NNE,19,5.0,12.0,75,0.00,,SKC,0.00,VWS V14.01,2013-11-12 19:25:00,
2013-11-12 13:30:00,55.2,47.4,30.43,NNW,335,0.0,17.0,75,0.00,,SKC,0.00,VWS V14.01,2013-11-12 19:30:00,
2013-11-12 13:35:00,55.3,47.5,30.43,NNE,17,0.0,3.0,75,0.00,,SKC,0.00,VWS V14.01,2013-11-12 19:35:00,
2013-11-12 13:40:00,55.4,47.6,30.44,NNE,15,1.0,16.0,75,0.00,,SKC,0.00,VWS V14.01,2013-11-12 19:40:00,
2013-11-12 13:45:00,55.6,47.8,30.43,North,349,0.0,2.0,75,0.00,,SKC,0.00,VWS V14.01,2013-11-12 19:45:00,
2013-11-12 13:50:00,55.8,47.7,30.43,NNW,339,2.0,17.0,74,0.00,,SKC,0.00,VWS V14.01,2013-11-12 19:50:00,
2013-11-12 13:55:00,56.0,47.8,30.44,NNE,13,1.0,9.0,74,0.00,,SKC,0.00,VWS V14.01,2013-11-12 19:55:00,
2013-11-12 14:00:00,56.2,48.0,30.43,NNE,19,3.0,14.0,74,0.00,,SKC,0.00,VWS V14.01,2013-11-12 20:00:00,
2013-11-12 14:05:00,56.6,48.1,30.43,North,360,3.0,7.0,73,0.00,,SKC,0.00,VWS V14.01,2013-11-12 20:05:00,
2013-11-12 14:10:00,56.9,48.3,30.43,North,360,2.0,7.0,73,0.00,,SKC,0.00,VWS V14.01,2013-11-12 20:10:00,
2013-11-12 14:15:00,57.1,48.2,30.44,North,5,7.0,7.0,72,0.00,,SKC,0.00,VWS V14.01,2013-11-12 20:15:00,
2013-11-12 14:20:00,57.4,48.5,30.43,NNE,32,0.0,11.0,72,0.00,,SKC,0.00,VWS V14.01,2013-11-12 20:20:00,
2013-11-12 14:25:00,57.7,48.4,30.43,North,5,3.0,3.0,71,0.00,,SKC,0.00,VWS V14.01,2013-11-12 20:25:00,
2013-11-12 14:30:00,57.9,48.2,30.44,North,5,3.0,17.0,70,0.00,,SKC,0.00,VWS V14.01,2013-11-12 20:30:00,
2013-11-12 14:35:00,57.9,48.2,30.44,NNE,26,0.0,8.0,70,0.00,,SKC,0.00,VWS V14.01,2013-11-12 20:35:00,
2013-11-12 14:40:00,58.1,48.8,30.44,NNW,345,5.0,11.0,71,0.00,,SKC,0.00,VWS V14.01,2013-11-12 20:40:00,
2013-11-12 14:45:00,58.3,48.2,30.44,NNE,12,0.0,4.0,69,0.00,,SKC,0.00,VWS V14.01,2013-11-12 20:45:00,
2013-11-12 14:50:00,58.3,48.2,30.44,NNW,339,1.0,13.0,69,0.00,,SKC,0.00,VWS V14.01,2013-11-12 20:50:00,
2013-11-12 14:55:00,58.4,48.3,30.44,NNE,14,1.0,8.0,69,0.00,,SKC,0.00,VWS V14.01,2013-11-12 20:55:00,
2013-11-12 15:00:00,58.4,47.9,30.44,NNW,340,3.0,14.0,68,0.00,,SKC,0.00,VWS V14.01,2013-11-12 21:00:00,
2013-11-12 15:05:00,58.5,48.0,30.44,North,350,0.0,7.0,68,0.00,,SKC,0.00,VWS V14.01,2013-11-12 21:05:00,
2013-11-12 15:10:00,58.7,48.2,30.44,North,349,3.0,14.0,68,0.00,,SKC,0.00,VWS V14.01,2013-11-12 21:10:00,
2013-11-12 15:15:00,58.9,48.4,30.44,ENE,65,1.0,10.0,68,0.00,,SKC,0.00,VWS V14.01,2013-11-12 21:15:00,
2013-11-12 15:20:00,59.0,48.1,30.44,North,11,6.0,12.0,67,0.00,,SKC,0.00,VWS V14.01,2013-11-12 21:20:00,
2013-11-12 15:25:00,59.0,48.1,30.44,NNE,13,0.0,7.0,67,0.00,,SKC,0.00,VWS V14.01,2013-11-12 21:25:00,
2013-11-12 15:30:00,58.9,48.0,30.44,North,11,0.0,13.0,67,0.00,,SKC,0.00,VWS V14.01,2013-11-12 21:30:00,
2013-11-12 15:35:00,58.8,47.5,30.44,NNE,13,3.0,5.0,66,0.00,,SKC,0.00,VWS V14.01,2013-11-12 21:35:00,
2013-11-12 15:40:00,58.7,47.4,30.45,NNE,24,0.0,8.0,66,0.00,,SKC,0.00,VWS V14.01,2013-11-12 21:40:00,
2013-11-12 15:45:00,58.6,47.3,30.45,NE,46,1.0,6.0,66,0.00,,SKC,0.00,VWS V14.01,2013-11-12 21:45:00,
2013-11-12 15:50:00,58.4,47.1,30.45,NE,48,4.0,12.0,66,0.00,,SKC,0.00,VWS V14.01,2013-11-12 21:50:00,
2013-11-12 15:55:00,58.1,46.8,30.45,NNE,27,2.0,7.0,66,0.00,,SKC,0.00,VWS V14.01,2013-11-12 21:55:00,
2013-11-12 16:00:00,58.0,46.7,30.45,NNW,348,5.0,17.0,66,0.00,,SKC,0.00,VWS V14.01,2013-11-12 22:00:00,
2013-11-12 16:05:00,57.8,46.1,30.45,North,355,1.0,3.0,65,0.00,,SKC,0.00,VWS V14.01,2013-11-12 22:05:00,
2013-11-12 16:10:00,57.7,46.0,30.45,North,11,3.0,13.0,65,0.00,,SKC,0.00,VWS V14.01,2013-11-12 22:10:00,
2013-11-12 16:15:00,57.4,45.8,30.45,NNE,15,0.0,5.0,65,0.00,,SKC,0.00,VWS V14.01,2013-11-12 22:15:00,
2013-11-12 16:20:00,57.3,45.7,30.45,NNW,348,3.0,13.0,65,0.00,,SKC,0.00,VWS V14.01,2013-11-12 22:20:00,
2013-11-12 16:25:00,57.2,45.2,30.45,NNE,16,2.0,9.0,64,0.00,,SKC,0.00,VWS V14.01,2013-11-12 22:25:00,
2013-11-12 16:30:00,57.2,45.2,30.45,North,5,0.0,11.0,64,0.00,,SKC,0.00,VWS V14.01,2013-11-12 22:30:00,
2013-11-12 16:35:00,57.3,45.2,30.45,North,355,6.0,9.0,64,0.00,,SKC,0.00,VWS V14.01,2013-11-12 22:35:00,
2013-11-12 16:40:00,57.2,44.7,30.45,North,355,1.0,18.0,63,0.00,,SKC,0.00,VWS V14.01,2013-11-12 22:40:00,
2013-11-12 16:45:00,57.1,44.2,30.46,North,351,10.0,10.0,62,0.00,,SKC,0.00,VWS V14.01,2013-11-12 22:45:00,
2013-11-12 16:50:00,56.9,44.5,30.46,NNW,348,0.0,16.0,63,0.00,,SKC,0.00,VWS V14.01,2013-11-12 22:50:00,
2013-11-12 16:55:00,56.8,44.3,30.46,North,355,3.0,10.0,63,0.00,,SKC,0.00,VWS V14.01,2013-11-12 22:55:00,
2013-11-12 17:00:00,56.5,44.1,30.46,NNW,341,5.0,17.0,63,0.00,,SKC,0.00,VWS V14.01,2013-11-12 23:00:00,
2013-11-12 17:05:00,56.3,43.9,30.46,NNE,13,4.0,9.0,63,0.00,,SKC,0.00,VWS V14.01,2013-11-12 23:05:00,
2013-11-12 17:10:00,56.0,43.6,30.46,North,5,6.0,16.0,63,0.00,,SKC,0.00,VWS V14.01,2013-11-12 23:10:00,
2013-11-12 17:15:00,55.7,43.7,30.46,North,5,0.0,2.0,64,0.00,,SKC,0.00,VWS V14.01,2013-11-12 23:15:00,
2013-11-12 17:20:00,55.4,43.8,30.46,NNW,347,12.0,13.0,65,0.00,,SKC,0.00,VWS V14.01,2013-11-12 23:20:00,
2013-11-12 17:25:00,55.1,44.0,30.46,North,351,0.0,0.0,66,0.00,,SKC,0.00,VWS V14.01,2013-11-12 23:25:00,
2013-11-12 17:30:00,54.9,43.8,30.46,NNW,341,2.0,6.0,66,0.00,,SKC,0.00,VWS V14.01,2013-11-12 23:30:00,
2013-11-12 17:35:00,54.6,43.9,30.47,NNW,348,0.0,0.0,67,0.00,,SKC,0.00,VWS V14.01,2013-11-12 23:35:00,
2013-11-12 17:40:00,54.4,43.7,30.47,NNW,344,4.0,10.0,67,0.00,,SKC,0.00,VWS V14.01,2013-11-12 23:40:00,
2013-11-12 17:45:00,54.2,43.9,30.48,North,5,0.0,0.0,68,0.00,,SKC,0.00,VWS V14.01,2013-11-12 23:45:00,
2013-11-12 17:50:00,54.1,43.8,30.48,North,360,1.0,5.0,68,0.00,,SKC,0.00,VWS V14.01,2013-11-12 23:50:00,
2013-11-12 17:55:00,53.9,44.0,30.48,North,360,0.0,0.0,69,0.00,,SKC,0.00,VWS V14.01,2013-11-12 23:55:00,
2013-11-12 18:00:00,53.8,43.9,30.48,North,360,0.0,7.0,69,0.00,,SKC,0.00,VWS V14.01,2013-11-13 00:00:00,
2013-11-12 18:05:00,53.6,44.1,30.48,North,355,0.0,0.0,70,0.00,,SKC,0.00,VWS V14.01,2013-11-13 00:05:00,
2013-11-12 18:10:00,53.5,44.0,30.48,North,355,0.0,5.0,70,0.00,,SKC,0.00,VWS V14.01,2013-11-13 00:10:00,
2013-11-12 18:15:00,53.4,43.9,30.49,North,355,4.0,5.0,70,0.00,,SKC,0.00,VWS V14.01,2013-11-13 00:15:00,
2013-11-12 18:20:00,53.3,43.8,30.49,North,355,2.0,5.0,70,0.00,,SKC,0.00,VWS V14.01,2013-11-13 00:20:00,
2013-11-12 18:25:00,53.1,43.6,30.50,North,360,0.0,7.0,70,0.00,,SKC,0.00,VWS V14.01,2013-11-13 00:25:00,
2013-11-12 18:30:00,53.1,43.2,30.50,North,360,1.0,9.0,69,0.00,,SKC,0.00,VWS V14.01,2013-11-13 00:30:00,
2013-11-12 18:35:00,53.0,42.7,30.50,NNW,331,5.0,9.0,68,0.00,,SKC,0.00,VWS V14.01,2013-11-13 00:35:00,
2013-11-12 18:40:00,53.0,42.7,30.51,North,360,6.0,9.0,68,0.00,,SKC,0.00,VWS V14.01,2013-11-13 00:40:00,
2013-11-12 18:45:00,52.9,42.3,30.51,North,360,2.0,9.0,67,0.00,,SKC,0.00,VWS V14.01,2013-11-13 00:45:00,
2013-11-12 18:50:00,52.8,42.2,30.51,North,355,0.0,13.0,67,0.00,,SKC,0.00,VWS V14.01,2013-11-13 00:50:00,
2013-11-12 18:55:00,52.7,42.1,30.51,North,355,2.0,13.0,67,0.00,,SKC,0.00,VWS V14.01,2013-11-13 00:55:00,
2013-11-12 19:00:00,52.7,42.1,30.51,North,350,0.0,19.0,67,0.00,,SKC,0.00,VWS V14.01,2013-11-13 01:00:00,
2013-11-12 19:05:00,52.6,41.6,30.51,North,355,0.0,19.0,66,0.00,,SKC,0.00,VWS V14.01,2013-11-13 01:05:00,
2013-11-12 19:10:00,52.4,41.4,30.52,North,5,0.0,9.0,66,0.00,,SKC,0.00,VWS V14.01,2013-11-13 01:10:00,
2013-11-12 19:15:00,52.3,41.3,30.52,NNE,13,0.0,17.0,66,0.00,,SKC,0.00,VWS V14.01,2013-11-13 01:15:00,
2013-11-12 19:20:00,52.2,41.2,30.52,North,350,0.0,10.0,66,0.00,,SKC,0.00,VWS V14.01,2013-11-13 01:20:00,
2013-11-12 19:25:00,52.1,41.1,30.53,North,360,0.0,10.0,66,0.00,,SKC,0.00,VWS V14.01,2013-11-13 01:25:00,
2013-11-12 19:30:00,51.9,40.9,30.53,North,355,5.0,13.0,66,0.00,,SKC,0.00,VWS V14.01,2013-11-13 01:30:00,
2013-11-12 19:35:00,51.8,40.8,30.53,North,355,0.0,13.0,66,0.00,,SKC,0.00,VWS V14.01,2013-11-13 01:35:00,
2013-11-12 19:40:00,51.7,40.7,30.53,North,355,0.0,7.0,66,0.00,,SKC,0.00,VWS V14.01,2013-11-13 01:40:00,
2013-11-12 19:45:00,51.5,40.5,30.53,North,360,2.0,7.0,66,0.00,,SKC,0.00,VWS V14.01,2013-11-13 01:45:00,
2013-11-12 19:50:00,51.4,40.4,30.53,North,360,0.0,8.0,66,0.00,,SKC,0.00,VWS V14.01,2013-11-13 01:50:00,
2013-11-12 19:55:00,51.2,39.8,30.53,North,360,0.0,8.0,65,0.00,,SKC,0.00,VWS V14.01,2013-11-13 01:55:00,
2013-11-12 20:00:00,51.1,39.8,30.54,North,351,7.0,11.0,65,0.00,,SKC,0.00,VWS V14.01,2013-11-13 02:00:00,
2013-11-12 20:05:00,51.0,39.7,30.54,North,355,4.0,11.0,65,0.00,,SKC,0.00,VWS V14.01,2013-11-13 02:05:00,
2013-11-12 20:10:00,50.9,39.6,30.54,North,355,0.0,6.0,65,0.00,,SKC,0.00,VWS V14.01,2013-11-13 02:10:00,
2013-11-12 20:15:00,50.8,39.1,30.55,NNE,15,0.0,10.0,64,0.00,,SKC,0.00,VWS V14.01,2013-11-13 02:15:00,
2013-11-12 20:20:00,50.6,39.3,30.55,NNE,15,0.0,4.0,65,0.00,,SKC,0.00,VWS V14.01,2013-11-13 02:20:00,
2013-11-12 20:25:00,50.5,39.2,30.55,NNE,12,0.0,6.0,65,0.00,,SKC,0.00,VWS V14.01,2013-11-13 02:25:00,
2013-11-12 20:30:00,50.3,39.0,30.55,North,11,4.0,4.0,65,0.00,,SKC,0.00,VWS V14.01,2013-11-13 02:30:00,
2013-11-12 20:35:00,50.1,38.8,30.56,North,11,0.0,5.0,65,0.00,,SKC,0.00,VWS V14.01,2013-11-13 02:35:00,
2013-11-12 20:40:00,49.9,38.6,30.56,NNE,12,0.0,6.0,65,0.00,,SKC,0.00,VWS V14.01,2013-11-13 02:40:00,
2013-11-12 20:45:00,49.8,38.1,30.56,North,9,0.0,6.0,64,0.00,,SKC,0.00,VWS V14.01,2013-11-13 02:45:00,
2013-11-12 20:50:00,49.6,37.9,30.56,North,5,0.0,7.0,64,0.00,,SKC,0.00,VWS V14.01,2013-11-13 02:50:00,
2013-11-12 20:55:00,49.5,37.8,30.57,NNE,17,0.0,7.0,64,0.00,,SKC,0.00,VWS V14.01,2013-11-13 02:55:00,
2013-11-12 21:00:00,49.3,37.2,30.57,NNE,13,0.0,9.0,63,0.00,,SKC,0.00,VWS V14.01,2013-11-13 03:00:00,
2013-11-12 21:05:00,49.2,37.2,30.57,North,10,1.0,10.0,63,0.00,,SKC,0.00,VWS V14.01,2013-11-13 03:05:00,
2013-11-12 21:10:00,49.0,37.0,30.57,North,9,4.0,7.0,63,0.00,,SKC,0.00,VWS V14.01,2013-11-13 03:10:00,
2013-11-12 21:15:00,48.8,36.4,30.58,North,10,0.0,7.0,62,0.00,,SKC,0.00,VWS V14.01,2013-11-13 03:15:00,
2013-11-12 21:20:00,48.7,36.3,30.58,North,10,2.0,8.0,62,0.00,,SKC,0.00,VWS V14.01,2013-11-13 03:20:00,
2013-11-12 21:25:00,48.5,35.7,30.58,NNE,18,1.0,8.0,61,0.00,,SKC,0.00,VWS V14.01,2013-11-13 03:25:00,
2013-11-12 21:30:00,48.3,35.1,30.58,NNE,20,0.0,4.0,60,0.00,,SKC,0.00,VWS V14.01,2013-11-13 03:30:00,
2013-11-12 21:35:00,48.1,34.5,30.58,North,10,1.0,11.0,59,0.00,,SKC,0.00,VWS V14.01,2013-11-13 03:35:00,
2013-11-12 21:40:00,48.1,34.0,30.59,NNE,15,0.0,9.0,58,0.00,,SKC,0.00,VWS V14.01,2013-11-13 03:40:00,
2013-11-12 21:45:00,47.9,33.8,30.59,NNE,13,2.0,12.0,58,0.00,,SKC,0.00,VWS V14.01,2013-11-13 03:45:00,
2013-11-12 21:50:00,47.8,33.3,30.59,NNE,13,0.0,5.0,57,0.00,,SKC,0.00,VWS V14.01,2013-11-13 03:50:00,
2013-11-12 21:55:00,47.6,33.1,30.60,North,11,0.0,7.0,57,0.00,,SKC,0.00,VWS V14.01,2013-11-13 03:55:00,
2013-11-12 22:00:00,47.4,32.5,30.60,North,11,0.0,7.0,56,0.00,,SKC,0.00,VWS V14.01,2013-11-13 04:00:00,
2013-11-12 22:05:00,47.3,32.4,30.60,North,10,0.0,8.0,56,0.00,,SKC,0.00,VWS V14.01,2013-11-13 04:05:00,
2013-11-12 22:10:00,47.1,32.2,30.60,NNE,13,2.0,12.0,56,0.00,,SKC,0.00,VWS V14.01,2013-11-13 04:10:00,
2013-11-12 22:15:00,47.0,32.1,30.60,NNE,12,0.0,12.0,56,0.00,,SKC,0.00,VWS V14.01,2013-11-13 04:15:00,
2013-11-12 22:20:00,47.0,32.1,30.60,North,9,0.0,10.0,56,0.00,,SKC,0.00,VWS V14.01,2013-11-13 04:20:00,
2013-11-12 22:25:00,46.9,32.0,30.60,North,355,0.0,10.0,56,0.00,,SKC,0.00,VWS V14.01,2013-11-13 04:25:00,
2013-11-12 22:30:00,46.8,32.4,30.60,North,5,8.0,11.0,57,0.00,,SKC,0.00,VWS V14.01,2013-11-13 04:30:00,
2013-11-12 22:35:00,46.7,32.3,30.60,North,349,6.0,11.0,57,0.00,,SKC,0.00,VWS V14.01,2013-11-13 04:35:00,
2013-11-12 22:40:00,46.5,32.1,30.60,North,360,0.0,12.0,57,0.00,,SKC,0.00,VWS V14.01,2013-11-13 04:40:00,
2013-11-12 22:45:00,46.4,32.0,30.60,North,355,3.0,12.0,57,0.00,,SKC,0.00,VWS V14.01,2013-11-13 04:45:00,
2013-11-12 22:50:00,46.3,31.9,30.60,North,355,2.0,11.0,57,0.00,,SKC,0.00,VWS V14.01,2013-11-13 04:50:00,
2013-11-12 22:55:00,46.1,31.3,30.60,North,355,2.0,11.0,56,0.00,,SKC,0.00,VWS V14.01,2013-11-13 04:55:00,
2013-11-12 23:00:00,46.0,31.2,30.60,North,360,2.0,12.0,56,0.00,,SKC,0.00,VWS V14.01,2013-11-13 05:00:00,
2013-11-12 23:01:00,45.9,31.1,30.60,North,360,0.0,12.0,56,0.00,,SKC,0.00,VWS V14.01,2013-11-13 05:01:00,
2013-11-12 23:06:00,45.8,31.0,30.60,North,9,8.0,8.0,56,0.00,,SKC,0.00,VWS V14.01,2013-11-13 05:06:00,
2013-11-12 23:10:00,45.8,31.0,30.60,North,360,1.0,12.0,56,0.00,,SKC,0.00,VWS V14.01,2013-11-13 05:10:00,
2013-11-12 23:11:00,45.6,29.9,30.60,NNE,15,1.0,11.0,54,0.00,,SKC,0.00,VWS V14.01,2013-11-13 05:11:00,
2013-11-12 23:16:00,45.5,29.4,30.60,North,5,7.0,12.0,53,0.00,,SKC,0.00,VWS V14.01,2013-11-13 05:16:00,
2013-11-12 23:20:00,45.5,29.4,30.60,North,5,4.0,11.0,53,0.00,,SKC,0.00,VWS V14.01,2013-11-13 05:20:00,
2013-11-12 23:21:00,45.4,29.3,30.61,North,350,8.0,12.0,53,0.00,,SKC,0.00,VWS V14.01,2013-11-13 05:21:00,
2013-11-12 23:26:00,45.3,28.7,30.61,North,360,3.0,8.0,52,0.00,,SKC,0.00,VWS V14.01,2013-11-13 05:26:00,
2013-11-12 23:30:00,45.3,28.7,30.61,North,360,3.0,12.0,52,0.00,,SKC,0.00,VWS V14.01,2013-11-13 05:30:00,
2013-11-12 23:31:00,45.2,28.6,30.61,NNE,22,0.0,8.0,52,0.00,,SKC,0.00,VWS V14.01,2013-11-13 05:31:00,
2013-11-12 23:36:00,45.1,28.5,30.61,North,360,2.0,11.0,52,0.00,,SKC,0.00,VWS V14.01,2013-11-13 05:36:00,
2013-11-12 23:40:00,45.1,28.5,30.61,North,9,0.0,8.0,52,0.00,,SKC,0.00,VWS V14.01,2013-11-13 05:40:00,
2013-11-12 23:41:00,44.9,28.4,30.61,North,5,5.0,12.0,52,0.00,,SKC,0.00,VWS V14.01,2013-11-13 05:41:00,
2013-11-12 23:46:00,44.8,28.3,30.61,North,5,0.0,2.0,52,0.00,,SKC,0.00,VWS V14.01,2013-11-13 05:46:00,
2013-11-12 23:50:00,44.8,28.3,30.61,North,5,0.0,12.0,52,0.00,,SKC,0.00,VWS V14.01,2013-11-13 05:50:00,
2013-11-12 23:51:00,44.6,28.1,30.61,North,5,4.0,9.0,52,0.00,,SKC,0.00,VWS V14.01,2013-11-13 05:51:00,
2013-11-12 23:56:00,44.4,27.9,30.61,North,5,1.0,10.0,52,0.00,,SKC,0.00,VWS V14.01,2013-11-13 05:56:00,